Location: Kaseke
(18.0171°S, 31.0526°E)
Time: 12:42:32
(UTC+00:00)

Cosmos 841 Rocket - Pass Details

Date: 14 July 2020
Orbit: 747 x 772 km, 74.0° (Epoch: 08 August)

Event Time Altitude Azimuth Distance (km) Brightness Sun altitude
Rises 03:09:15 0° 340° (NNW) 3,206 6.7 -18.3°
Reaches altitude 10° 03:11:37 10° 337° (NNW) 2,291 5.9 -17.8°
Maximum altitude 03:16:46 64° 256° (WSW) 853 3.4 -16.6°
Drops below altitude 10° 03:22:00 10° 174° (S) 2,326 5.9 -15.4°
Sets 03:24:26 0° 171° (S) 3,260 6.7 -14.9°
